Home   Weather   Al-Jamiliyah   Past weeks

Flag for Qatar Past Weather in Al-Jamiliyah, Qatar — Yesterday and Last 2 Weeks

Now
61 °F

Sunny.


Feels Like: 61 °F
Forecast: 60 / 72 °F
Wind: 6 mph from Northwest

Location: Doha International Airport

Current Time: Jan 18, 2017 at 7:40:54 am

Latest Report: Jan 18, 2017 at 7:00 am


Visibility: 10 mi

Pressure: 30.12 "Hg

Humidity: 72%

Dew Point: 52 °F

Location of Al-JamiliyahLocation

Past Weather in Al-Jamiliyah — Graph

°F

Al-Jamiliyah Temperature Yesterday

Maximum temperature yesterday: 75 °F (at 1:00 pm)
Minimum temperature yesterday: 63 °F (at 12:00 am)
Average temperature yesterday: 67 °F

High & Low Weather Summary for the Past Weeks

 TemperatureHumidityPressure
High81 °F (Jan 11, 3:00 pm)100% (Jan 3, 7:00 am)30.18 "Hg (Jan 3, 7:00 am)
Low57 °F (Jan 16, 5:00 am)24% (Jan 8, 11:00 am)29.89 "Hg (Jan 13, 1:00 pm)
Average67 °F65%30.04 "Hg
* Reported Jan 3 7:00 am — Jan 18 6:00 am, Al-Jamiliyah, Weather by CustomWeather, © 2017

Note: Actual official high and low records may vary slightly from our data, if they occured in-between our weather recording intervals... More about our weather records

Advertising

Al-Jamiliyah Weather History for the Previous 24 Hours

Scroll right to see more
 ConditionsComfort  
Time TempWeatherWind HumidityBarometerVisibility
6:00 am
Wed, Jan 18
59 °FClear.6 mph72%30.12 "Hg10 mi
5:00 am59 °FClear.8 mph68%30.09 "Hg10 mi
4:00 am61 °FClear.8 mph68%30.09 "Hg10 mi
3:00 am61 °FClear.8 mph68%30.09 "Hg10 mi
2:00 am61 °FClear.8 mph72%30.09 "Hg10 mi
1:00 am63 °FClear.8 mph68%30.09 "Hg10 mi
12:00 am63 °FClear.7 mph68%30.09 "Hg10 mi
11:00 pm
Tue, Jan 17
63 °FClear.9 mph68%30.09 "Hg10 mi
10:00 pm64 °FPassing clouds.7 mph64%30.12 "HgN/A
9:00 pm64 °FClear.8 mph64%30.12 "Hg10 mi
8:00 pm64 °FPassing clouds.8 mph68%30.12 "HgN/A
7:00 pm66 °FPassing clouds.10 mph60%30.09 "HgN/A
6:00 pm68 °FClear.12 mph56%30.09 "Hg10 mi
5:00 pm70 °FSunny.14 mph50%30.07 "Hg10 mi
4:00 pm72 °FSunny.16 mph47%30.07 "Hg10 mi
3:00 pm73 °FPassing clouds.14 mph44%30.04 "HgN/A
2:00 pm75 °FPassing clouds.10 mph41%30.04 "HgN/A
1:00 pm75 °FPassing clouds.12 mph44%30.07 "HgN/A
12:00 pm73 °FPassing clouds.12 mph50%30.09 "HgN/A
11:00 am72 °FSunny.13 mph53%30.12 "Hg10 mi
10:00 am70 °FPassing clouds.10 mph57%30.15 "HgN/A
9:00 am68 °FPassing clouds.9 mph60%30.15 "HgN/A
8:00 am66 °FSunny.8 mph64%30.15 "Hg10 mi
7:00 am64 °FSunny.8 mph68%30.15 "Hg10 mi
Weather by CustomWeather, © 2017

See weather overviewHow to use our weather pages